Total_Precipitation_Accumulation
0.00 0.00 0.00 0.00 0.00 0.00 0.00 0.00 0.00 0.00 0.00 0.00 0.00 0.00 0.00 0.00 0.00 0.00 0.00 0.00 0.00 0.00 0.00 0.00 0.00 0.00 0.00 0.00 0.00 0.00 0.00 0.00 0.00 0.00 0.00 0.00 0.00 0.00 0.00 0.01 0.01 0.00 0.00 0.01
0.00 0.00 0.00 0.00 0.00 0.00 0.00 0.00 0.00 0.00 0.00 0.00 0.00 0.00 0.00 0.00 0.00 0.00 0.00 0.00 0.00 0.00 0.00 0.00 0.00 0.00 0.00 0.00 0.00 0.00 0.00 0.00 0.00 0.00 0.00 0.00 0.00 0.00 0.00 0.00 0.00 0.00 0.00 0.01
0.00 0.00 0.00 0.00 0.00 0.00 0.00 0.00 0.00 0.00 0.00 0.00 0.00 0.00 0.00 0.00 0.00 0.00 0.00 0.00 0.00 0.00 0.00 0.00 0.00 0.00 0.00 0.00 0.00 0.00 0.00 0.00 0.00 0.00 0.00 0.00 0.00 0.00 0.00 0.01 0.01 0.00 0.00 0.00
0.00 0.00 0.00 0.00 0.00 0.00 0.00 0.00 0.00 0.00 0.00 0.00 0.00 0.00 0.00 0.00 0.00 0.00 0.00 0.00 0.00 0.00 0.00 0.00 0.00 0.00 0.00 0.00 0.00 0.00 0.00 0.00 0.00 0.00 0.00 0.00 0.00 0.00 0.00 0.00 0.00 0.00 0.00 0.00
0.00 0.00 0.00 0.00 0.00 0.00 0.00 0.00 0.00 0.00 0.00 0.00 0.00 0.00 0.00 0.00 0.00 0.00 0.00 0.00 0.00 0.00 0.00 0.00 0.00 0.00 0.00 0.00 0.00 0.00 0.00 0.00 0.00 0.00 0.00 0.00 0.00 0.00 0.00 0.00 0.00 0.00 0.00 0.00
0.00 0.00 0.00 0.00 0.00 0.00 0.00 0.00 0.00 0.00 0.00 0.00 0.00 0.00 0.00 0.00 0.00 0.00 0.00 0.00 0.00 0.00 0.00 0.00 0.00 0.00 0.00 0.00 0.00 0.00 0.00 0.00 0.00 0.00 0.00 0.00 0.00 0.00 0.00 0.00 0.00 0.00 0.01 0.01
0.01 0.00 0.00 0.01 0.00 0.00 0.00 0.00 0.00 0.00 0.00 0.00 0.00 0.00 0.00 0.00 0.00 0.00 0.00 0.00 0.00 0.00 0.00 0.00 0.00 0.00 0.00 0.00 0.00 0.00 0.00 0.00 0.01 0.01 0.00 0.00 0.00 0.00 0.00 0.00 0.00 0.00 0.00 0.00
0.00 0.00 0.00 0.00 0.01 0.01 0.00 0.00 0.00 0.00 0.00 0.00 0.00 0.00 0.00 0.00 0.00 0.00 0.00 0.00 0.00 0.00 0.00 0.00 0.00 0.00 0.00 0.00 0.00 0.00 0.00 0.03 0.03 0.02 0.01 0.00 0.00 0.00 0.00 0.00 0.01 0.00 0.00 0.00
0.00 0.00 0.01 0.01 0.01 0.03 0.02 0.00 0.00 0.02 0.05 0.00 0.00 0.00 0.00 0.00 0.00 0.00 0.00 0.00 0.00 0.00 0.00 0.00 0.00 0.00 0.00 0.00 0.00 0.00 0.01 0.03 0.09 0.07 0.06 0.02 0.00 0.00 0.00 0.00 0.01 0.00 0.00 0.00
0.01 0.01 0.01 0.01 0.01 0.05 0.06 0.02 0.03 0.07 0.14 0.01 0.00 0.00 0.00 0.01 0.02 0.04 0.01 0.00 0.00 0.00 0.01 0.01 0.00 0.00 0.00 0.00 0.00 0.00 0.01 0.02 0.05 0.06 0.07 0.04 0.00 0.00 0.00 0.01 0.01 0.00 0.00 0.00
0.01 0.01 0.01 0.01 0.03 0.07 0.08 0.03 0.04 0.10 0.16 0.03 0.00 0.00 0.00 0.01 0.02 0.05 0.03 0.05 0.02 0.03 0.05 0.03 0.01 0.01 0.01 0.00 0.00 0.00 0.00 0.02 0.01 0.01 0.02 0.00 0.00 0.00 0.00 0.00 0.00 0.00 0.00 0.00
0.01 0.01 0.01 0.02 0.03 0.06 0.09 0.02 0.03 0.07 0.09 0.02 0.00 0.00 0.00 0.00 0.00 0.05 0.08 0.07 0.02 0.08 0.10 0.07 0.10 0.06 0.04 0.03 0.02 0.00 0.01 0.02 0.03 0.04 0.02 0.00 0.00 0.00 0.00 0.00 0.00 0.00 0.00 0.00
0.02 0.01 0.01 0.03 0.02 0.03 0.10 0.04 0.04 0.06 0.06 0.01 0.00 0.00 0.00 0.00 0.00 0.04 0.06 0.01 0.03 0.05 0.13 0.26 0.24 0.11 0.04 0.04 0.02 0.01 0.01 0.02 0.07 0.06 0.01 0.00 0.00 0.00 0.00 0.00 0.00 0.00 0.00 0.00
0.03 0.01 0.01 0.01 0.02 0.04 0.10 0.04 0.03 0.08 0.08 0.08 0.00 0.00 0.00 0.00 0.00 0.00 0.01 0.00 0.02 0.04 0.10 0.28 0.21 0.10 0.03 0.02 0.02 0.04 0.10 0.07 0.07 0.03 0.00 0.01 0.00 0.00 0.00 0.00 0.00 0.00 0.00 0.00
0.01 0.00 0.00 0.01 0.03 0.05 0.05 0.00 0.00 0.03 0.13 0.08 0.00 0.00 0.00 0.00 0.00 0.00 0.01 0.00 0.02 0.03 0.10 0.14 0.05 0.02 0.07 0.06 0.06 0.17 0.15 0.18 0.17 0.11 0.01 0.02 0.01 0.00 0.00 0.00 0.00 0.00 0.00 0.00
0.00 0.00 0.00 0.00 0.01 0.04 0.03 0.01 0.00 0.00 0.06 0.14 0.05 0.00 0.00 0.01 0.00 0.00 0.01 0.00 0.00 0.02 0.03 0.03 0.02 0.01 0.30 0.28 0.10 0.16 0.10 0.04 0.03 0.04 0.00 0.01 0.00 0.00 0.00 0.00 0.00 0.00 0.00 0.00
0.00 0.00 0.00 0.00 0.00 0.03 0.04 0.03 0.09 0.12 0.16 0.36 0.21 0.02 0.02 0.01 0.00 0.00 0.00 0.00 0.00 0.00 0.02 0.02 0.02 0.05 0.48 0.37 0.17 0.06 0.01 0.00 0.00 0.00 0.04 0.06 0.00 0.00 0.00 0.00 0.00 0.01 0.00 0.00
0.00 0.00 0.00 0.00 0.00 0.00 0.00 0.01 0.03 0.06 0.10 0.09 0.05 0.01 0.03 0.01 0.02 0.00 0.00 0.00 0.00 0.00 0.01 0.05 0.14 0.24 0.31 0.26 0.07 0.01 0.00 0.00 0.00 0.00 0.01 0.03 0.02 0.01 0.01 0.01 0.02 0.03 0.01 0.00
0.00 0.00 0.00 0.00 0.00 0.00 0.00 0.00 0.00 0.01 0.07 0.08 0.06 0.07 0.07 0.05 0.01 0.00 0.00 0.00 0.00 0.01 0.06 0.18 0.20 0.18 0.19 0.18 0.09 0.05 0.04 0.08 0.06 0.01 0.00 0.00 0.01 0.02 0.03 0.04 0.04 0.06 0.02 0.00
0.00 0.00 0.00 0.00 0.00 0.00 0.00 0.00 0.00 0.01 0.07 0.11 0.06 0.09 0.15 0.05 0.00 0.00 0.00 0.01 0.01 0.03 0.06 0.40 0.21 0.14 0.09 0.01 0.03 0.07 0.09 0.09 0.09 0.17 0.16 0.14 0.11 0.06 0.06 0.08 0.07 0.05 0.03 0.01
0.00 0.00 0.00 0.00 0.00 0.00 0.00 0.00 0.00 0.00 0.00 0.02 0.04 0.12 0.03 0.00 0.00 0.00 0.01 0.01 0.02 0.08 0.12 0.37 0.19 0.06 0.01 0.00 0.00 0.01 0.05 0.07 0.09 0.17 0.19 0.18 0.24 0.21 0.15 0.08 0.06 0.04 0.05 0.06
0.01 0.02 0.01 0.00 0.00 0.00 0.00 0.00 0.00 0.00 0.00 0.01 0.02 0.02 0.01 0.01 0.00 0.01 0.01 0.05 0.07 0.20 0.12 0.15 0.04 0.02 0.01 0.01 0.02 0.03 0.08 0.14 0.16 0.18 0.29 0.29 0.24 0.18 0.12 0.09 0.09 0.10 0.09 0.11
0.00 0.00 0.00 0.00 0.00 0.00 0.00 0.00 0.00 0.00 0.03 0.05 0.08 0.02 0.01 0.01 0.01 0.00 0.02 0.05 0.11 0.10 0.02 0.02 0.04 0.02 0.01 0.05 0.06 0.04 0.02 0.06 0.12 0.17 0.24 0.22 0.14 0.10 0.11 0.10 0.13 0.16 0.16 0.17
0.00 0.00 0.00 0.00 0.00 0.00 0.00 0.00 0.00 0.03 0.09 0.13 0.05 0.02 0.02 0.03 0.00 0.02 0.04 0.05 0.10 0.02 0.01 0.02 0.02 0.07 0.06 0.05 0.04 0.06 0.06 0.09 0.16 0.26 0.24 0.17 0.17 0.15 0.16 0.20 0.20 0.17 0.17 0.17
0.00 0.01 0.00 0.00 0.00 0.00 0.00 0.01 0.04 0.06 0.09 0.05 0.02 0.02 0.01 0.01 0.02 0.04 0.07 0.08 0.03 0.03 0.04 0.05 0.09 0.11 0.10 0.07 0.08 0.11 0.12 0.15 0.20 0.25 0.23 0.22 0.20 0.17 0.21 0.24 0.18 0.14 0.15 0.21
0.02 0.01 0.00 0.00 0.00 0.00 0.00 0.01 0.03 0.03 0.01 0.01 0.01 0.01 0.01 0.03 0.07 0.09 0.06 0.03 0.03 0.04 0.06 0.07 0.07 0.05 0.05 0.04 0.06 0.11 0.13 0.16 0.18 0.23 0.24 0.21 0.26 0.34 0.31 0.16 0.17 0.18 0.19 0.29
0.01 0.00 0.00 0.00 0.00 0.01 0.04 0.04 0.05 0.02 0.01 0.00 0.02 0.03 0.03 0.03 0.06 0.03 0.02 0.03 0.04 0.05 0.05 0.10 0.08 0.06 0.02 0.01 0.01 0.02 0.05 0.08 0.11 0.12 0.15 0.22 0.20 0.12 0.08 0.17 0.24 0.24 0.29 0.33